Edinburg, TX

7:48 AM CDT on May 25, 2017 (GMT -0500)
Edinburg

Weather History for KEBG - February, 2013

Change the Weather History Date:

Saturday, February 23, 2013

  Actual Average (KMFE) Record (KMFE)
Temperature  
Mean Temperature 70 °F -  
Max Temperature 80 °F 74 °F 101 °F (2017)
Min Temperature 60 °F 54 °F 33 °F (1964)
Cooling Degree Days 5    
Growing Degree Days 20 (Base 50)    
Moisture  
Dew Point 47 °F    
Average Humidity 48    
Maximum Humidity 64    
Minimum Humidity 26    
Precipitation  
Precipitation 0.00 in - - ()
Sea Level Pressure  
Sea Level Pressure 29.91 in    
Wind  
Wind Speed 12 mph (NNE)    
Max Wind Speed 15 mph    
Max Gust Speed 21 mph    
Visibility 7 miles    
Events      
Averages and records for this station are not official NWS values.
T = Trace of Precipitation, MM = Missing Value Source: NWS Daily Summary

Daily Weather History Graph

Daily Weather History Graph

Search for Another Location

Airport or City:

Trip Planner

Search our weather history database for the weather conditions in past years. The results will help you decide how hot, cold, wet, or windy it might be!

Date:

Astronomy

Feb. 23, 2013 Rise Set
Actual Time 7:01 AM CST 6:30 PM CST
Civil Twilight 6:38 AM CST 6:53 PM CST
Nautical Twilight 6:11 AM CST 7:20 PM CST
Astronomical Twilight 5:44 AM CST 7:47 PM CST
Moon 4:47 PM CST (2/23) 5:17 AM CST (2/23)
Length of Visible Light 12h 15m
Length of Day
11h 29m
Waxing Gibbous, 95% of the Moon is Illuminated
Feb 23
Waxing Gibbous
Feb 25
Full
Mar 4
Last Quarter
Mar 11
New
Mar 19
First Quarter

Hourly Weather History & Observations

Time (CST) Temp. Dew Point Humidity Pressure Visibility Wind Dir Wind Speed Gust Speed Precip Events Conditions
12:15 AM 67.1 °F 54.5 °F 64% 29.91 in 7.0 mi NNE 13.8 mph - N/A   Overcast
12:35 AM 67.1 °F 53.8 °F 62% 29.91 in 7.0 mi NNE 12.7 mph - N/A   Overcast
12:55 AM 66.7 °F 53.8 °F 63% 29.91 in 7.0 mi NNE 11.5 mph 17.3 mph N/A   Overcast
1:15 AM 66.7 °F 52.7 °F 61% 29.91 in 7.0 mi NNE 13.8 mph - N/A   Overcast
1:35 AM 66.6 °F 52.7 °F 61% 29.92 in 7.0 mi NNE 10.4 mph - N/A   Overcast
1:55 AM 66.2 °F 51.6 °F 59% 29.91 in 7.0 mi NNE 13.8 mph 20.7 mph N/A   Overcast
2:35 AM 65.5 °F 48.2 °F 54% 29.91 in 7.0 mi North 15.0 mph 18.4 mph N/A   Overcast
3:15 AM 64.4 °F 46.8 °F 53% 29.91 in 7.0 mi NNE 13.8 mph - N/A   Overcast
3:35 AM 63.9 °F 46.6 °F 53% 29.90 in 7.0 mi NNE 13.8 mph - N/A   Overcast
3:55 AM 63.5 °F 45.5 °F 52% 29.90 in 7.0 mi NNE 11.5 mph - N/A   Overcast
4:15 AM 62.8 °F 44.8 °F 52% 29.91 in 10.0 mi NNE 10.4 mph - N/A   Overcast
4:35 AM 62.4 °F 44.2 °F 51% 29.91 in 10.0 mi NNE 12.7 mph - N/A   Overcast
4:55 AM 61.7 °F 43.7 °F 52% 29.92 in 10.0 mi NNE 12.7 mph - N/A   Overcast
5:15 AM 61.7 °F 44.1 °F 52% 29.92 in 7.0 mi NNE 11.5 mph - N/A   Overcast
6:15 AM 61.0 °F 44.1 °F 54% 29.95 in 7.0 mi NNE 9.2 mph - N/A   Overcast
8:15 AM 60.4 °F 43.0 °F 53% 29.99 in 7.0 mi North 10.4 mph - N/A   Overcast
12:55 PM 70.5 °F 43.3 °F 37% 29.99 in 5.0 mi NNW 9.2 mph - N/A   Haze
1:35 PM 74.1 °F 44.8 °F 35% 29.95 in 7.0 mi NW 8.1 mph - N/A   Clear
2:35 PM 77.2 °F 45.3 °F 32% 29.91 in 5.0 mi NNW 13.8 mph 17.3 mph N/A   Haze
3:15 PM 78.6 °F 44.8 °F 30% 29.90 in 7.0 mi North 11.5 mph 17.3 mph N/A   Scattered Clouds
4:15 PM 80.4 °F 43.0 °F 26% 29.87 in 7.0 mi NNW 5.8 mph - N/A   Clear
5:15 PM 79.0 °F 43.5 °F 28% 29.85 in 4.0 mi NNE 8.1 mph - N/A   Haze
6:15 PM 77.0 °F 44.2 °F 31% 29.87 in 7.0 mi NNE 3.5 mph - N/A   Clear